Lee's Summit, MO

4:51 PM CDT on March 23, 2017 (GMT -0500)
Lee's Summit Municipal

Weather History for KLXT - January, 2014

Change the Weather History Date:

Sunday, January 12, 2014

  Actual Average (KMKC) Record (KMKC)
Temperature  
Mean Temperature 50 °F -  
Max Temperature 63 °F 36 °F 63 °F (2014)
Min Temperature 36 °F 21 °F 0 °F (1997)
Degree Days  
Heating Degree Days 16    
Moisture  
Dew Point 29 °F    
Average Humidity 50    
Maximum Humidity 70    
Minimum Humidity 29    
Precipitation  
Precipitation 0.00 in - - ()
Sea Level Pressure  
Sea Level Pressure 29.66 in    
Wind  
Wind Speed 13 mph (SSW)    
Max Wind Speed 22 mph    
Max Gust Speed 38 mph    
Visibility 10 miles    
Events      
Averages and records for this station are not official NWS values.
T = Trace of Precipitation, MM = Missing Value Source: NWS Daily Summary

Daily Weather History Graph

Daily Weather History Graph

Search for Another Location

Airport or City:

Trip Planner

Search our weather history database for the weather conditions in past years. The results will help you decide how hot, cold, wet, or windy it might be!

Date:

Astronomy

Jan. 12, 2014 Rise Set
Actual Time 7:35 AM CST 5:16 PM CST
Civil Twilight 7:06 AM CST 5:45 PM CST
Nautical Twilight 6:33 AM CST 6:18 PM CST
Astronomical Twilight 6:01 AM CST 6:50 PM CST
Moon 2:44 PM CST (1/12) 4:35 AM CST (1/12)
Length of Visible Light 10h 39m
Length of Day
9h 40m
Waxing Gibbous, 90% of the Moon is Illuminated
Jan 12
Waxing Gibbous
Jan 15
Full
Jan 23
Last Quarter
Jan 30
New
Feb 6
First Quarter

Hourly Weather History & Observations

Time (CST) Temp. Windchill Dew Point Humidity Pressure Visibility Wind Dir Wind Speed Gust Speed Precip Events Conditions
12:53 AM 36.0 °F 29.0 °F 27.0 °F 70% 29.88 in 10.0 mi South 9.2 mph - N/A   Clear
1:53 AM 36.0 °F 29.0 °F 26.1 °F 67% 29.86 in 10.0 mi South 9.2 mph - N/A   Clear
2:53 AM 37.9 °F 30.0 °F 26.1 °F 62% 29.85 in 10.0 mi South 12.7 mph - N/A   Clear
3:53 AM 37.0 °F 28.5 °F 26.1 °F 65% 29.81 in 10.0 mi South 13.8 mph - N/A   Clear
4:53 AM 39.0 °F 31.0 °F 26.1 °F 60% 29.78 in 10.0 mi South 13.8 mph 23.0 mph N/A   Clear
5:53 AM 37.9 °F 27.9 °F 26.1 °F 62% 29.76 in 10.0 mi South 19.6 mph 26.5 mph N/A   Clear
6:53 AM 37.9 °F 28.9 °F 26.1 °F 62% 29.75 in 10.0 mi South 16.1 mph 26.5 mph N/A   Clear
7:53 AM 39.9 °F 32.1 °F 26.1 °F 58% 29.73 in 10.0 mi South 13.8 mph 25.3 mph N/A   Clear
8:53 AM 43.0 °F 34.5 °F 26.1 °F 51% 29.70 in 10.0 mi South 19.6 mph 33.4 mph N/A   Clear
9:53 AM 48.9 °F - 27.0 °F 43% 29.67 in 10.0 mi South 21.9 mph 31.1 mph N/A   Clear
10:53 AM 53.1 °F - 28.0 °F 38% 29.65 in 10.0 mi SSW 20.7 mph 29.9 mph N/A   Clear
11:53 AM 57.9 °F - 28.9 °F 33% 29.58 in 10.0 mi SSW 19.6 mph 28.8 mph N/A   Clear
12:53 PM 59.0 °F - 30.0 °F 33% 29.53 in 10.0 mi SSW 21.9 mph 36.8 mph N/A   Clear
1:53 PM 63.0 °F - 30.0 °F 29% 29.51 in 10.0 mi SSW 21.9 mph 38.0 mph N/A   Clear
2:53 PM 62.1 °F - 30.9 °F 31% 29.51 in 10.0 mi SW 18.4 mph 36.8 mph N/A   Clear
3:53 PM 62.1 °F - 32.0 °F 32% 29.52 in 10.0 mi SW 13.8 mph 23.0 mph N/A   Clear
4:53 PM 60.1 °F - 32.0 °F 35% 29.53 in 10.0 mi SW 13.8 mph - N/A   Clear
5:53 PM 57.0 °F - 30.9 °F 37% 29.56 in 10.0 mi SSW 8.1 mph - N/A   Clear
6:53 PM 54.0 °F - 32.0 °F 43% 29.56 in 10.0 mi South 5.8 mph - N/A   Clear
7:53 PM 52.0 °F - 32.0 °F 47% 29.57 in 10.0 mi SSW 6.9 mph - N/A   Clear
8:53 PM 48.0 °F - 32.0 °F 54% 29.59 in 10.0 mi NNW 10.4 mph - N/A   Clear
9:53 PM 42.1 °F - 30.0 °F 62% 29.59 in 10.0 mi Calm Calm - N/A   Clear
10:53 PM 41.0 °F 38.0 °F 30.0 °F 65% 29.62 in 10.0 mi WNW 4.6 mph - N/A   Clear
11:53 PM 41.0 °F 33.9 °F 30.9 °F 67% 29.63 in 10.0 mi WNW 12.7 mph - N/A   Clear